Simultaneous Nadir Overpasses (SNOs) Predictions

Prediction of SNOs between AQUA and METOP-A Satellite Orbit:

Table of predicted SNOs for the next 14.0 days since TLE Epoch: 2/15/2019
Index Date (AQUA) Time (AQUA) Lat,Lon (AQUA) SZA (AQUA ) Date (METOP-A) Time (METOP-A) Lat,Lon (METOP-A) SZA (METOP-A ) Distance(km) Time Diff (sec)
1 02/18/2019 06:15:09 74.89, 78.01 86.83 02/18/2019 06:14:32 74.86, 77.96 86.81 3.23 37
2 02/18/2019 07:04:36 -74.93,-114.46 93.14 02/18/2019 07:05:12 -74.93,-114.54 93.15 2.37 36
3 02/21/2019 01:49:24 74.88, 144.48 85.81 02/21/2019 01:48:45 74.88, 144.40 85.82 2.38 39
4 02/21/2019 02:38:52 -74.96, -48.10 94.11 02/21/2019 02:39:25 -74.94, -48.09 94.14 2.76 33
5 02/23/2019 21:23:40 74.87,-149.06 84.77 02/23/2019 21:22:59 74.89,-149.16 84.80 3.46 41
6 02/23/2019 22:13:08 -74.95, 18.37 95.16 02/23/2019 22:13:39 -74.95, 18.35 95.16 0.49 31
7 02/26/2019 16:57:57 74.92, -82.75 83.77 02/26/2019 16:57:13 74.89, -82.73 83.76 2.94 44
8 02/26/2019 17:47:24 -74.95, 84.82 96.21 02/26/2019 17:47:53 -74.96, 84.79 96.20 2.06 29
9 03/01/2019 12:32:12 74.92, -16.33 82.71 03/01/2019 12:31:26 74.90, -16.31 82.70 2.85 46
10 03/01/2019 13:21:39 -74.95, 151.25 97.28 03/01/2019 13:22:06 -74.97, 151.22 97.26 2.85 27




NCC Satellite Simultaneous Nadir Overpasses (SNOs) Prediction Service
